SCP
4 2 1 0 0 0 0 0 0 0 0 0 0 0 0 0 0 0 0 0 0 0
1 0 0 0 0 0 0 0 0 0 0 0 0 0 0 0 0 0 0 0 0 0
0 0 0 0 0 0 0 0 0 0 0 0 0 0 0 0 0 0 0 0 0 0
1 0 0 0 0 0 0 0 0 0 0 0 0 0 -0 0 0 0 0 0 0 0
0 0 0 0 0 0 0 0 0 0 0 0 0 0 0 0 0 0 0 0 0 0
0 0 0 0 0 0 0 0 0 0 0 0 0 0 0 0 0 0 0 0 0 0
0 0 0 0 0 0 0 0 0 0 0 0 0 0 0 0 0 0 0 0 0 0
0 0 0 0 0 0 0 0 0 0 0 0 0 0 0 0 0 0 0 0 0 0
0 0 0 0 0 0 0 0 0 0 0 0 0 0 0 0 0 0 0 0 0 0
0 0 0 0 0 0 0 0 0 0 0 0 0 0 0 0 0 0 0 0 0 0
0 0 0 0 0 0 0 0 0 0 0 0 0 0 0 0 0 0 0 0 0 0
0 0 0 0 0 0 0 0 0 0 0 0 0 0 0 0 0 0 0 0 -0 0
0 0 0 0 0 0 0 0 0 0 0 0 0 0 0 0 0 0 0 0 -0 0
0 0 0 0 0 0 0 0 0 0 0 0 0 0 0 0 0 0 0 0 0 0
Wind_Speed_500mb
90 84 79 73 62 55 50 43 35 43 42 39 30 19 18 19 13 8 8 9 12 10
76 72 74 64 51 52 50 48 46 47 39 31 23 22 21 15 10 10 13 15 8 6
79 61 67 63 59 58 58 55 53 46 34 27 23 23 20 19 19 16 15 17 11 6
82 82 68 60 57 65 58 56 50 40 31 29 25 22 24 22 23 23 22 21 19 14
89 73 65 70 66 58 63 54 46 38 37 36 32 27 26 24 20 20 19 13 9 13
89 85 85 73 64 65 64 56 47 41 41 39 35 30 26 19 20 19 7 6 12 15
92 92 83 78 75 69 61 57 52 48 42 36 33 29 26 20 24 10 11 8 12 21
100 95 88 84 76 68 63 57 51 46 41 36 31 24 22 25 19 7 3 10 18 23
103 94 93 90 79 71 63 55 47 40 36 36 31 26 19 14 16 10 13 17 19 25
99 99 94 89 79 67 58 50 45 44 40 37 32 25 20 17 21 15 19 23 23 33
100 97 90 81 72 64 55 50 49 43 39 35 33 25 22 23 18 22 20 24 30 40
96 90 83 79 70 62 56 52 48 42 39 32 32 26 25 21 17 22 18 19 32 38
85 85 83 76 66 58 52 55 48 44 37 33 32 26 23 16 16 16 12 21 34 37
80 78 74 70 61 55 55 54 48 45 39 34 28 27 18 15 18 17 17 25 35 43
Wind_Direction_500mb
186 187 190 192 187 180 171 174 175 160 145 134 136 134 116 114 113 110 93 93 142 114
187 192 185 180 176 167 172 169 164 151 145 145 130 118 108 106 108 89 84 86 137 98
178 193 191 182 178 172 167 163 156 150 149 144 127 115 105 96 90 74 66 73 85 87
179 181 184 180 171 168 161 152 149 149 144 130 119 107 97 97 91 72 64 64 39 48
180 181 175 171 169 153 149 145 146 145 134 124 120 112 101 110 93 67 70 62 19 52
168 167 168 166 156 152 145 143 140 134 128 125 124 119 128 120 98 94 64 39 32 24
164 163 160 155 149 144 143 140 141 141 136 133 133 132 126 119 106 103 98 67 22 15
160 158 153 148 147 143 145 147 146 143 137 135 141 136 130 123 109 126 71 32 19 10
150 149 150 149 144 149 150 149 146 142 137 137 139 138 146 116 105 84 54 20 355 357
150 149 150 144 147 150 145 140 136 130 129 126 127 125 113 87 76 61 39 50 27 8
150 151 147 141 144 142 137 134 126 124 117 119 116 115 105 95 81 67 54 30 18 14
155 148 141 142 138 135 135 127 122 117 113 117 118 112 111 112 90 67 46 13 11 21
148 143 141 138 135 133 125 119 118 117 119 118 121 119 137 119 107 109 70 15 32 44
141 138 134 135 130 129 121 115 118 116 111 117 128 148 134 132 125 102 65 58 58 51
Wind_Speed_850mb
90 84 79 73 62 55 50 43 35 43 42 39 30 19 18 19 13 8 8 9 12 10
76 72 74 64 51 52 50 48 46 47 39 31 23 22 21 15 10 10 13 15 8 6
79 61 67 63 59 58 58 55 53 46 34 27 23 23 20 19 19 16 15 17 11 6
82 82 68 60 57 65 58 56 50 40 31 29 25 22 24 22 23 23 22 21 19 14
89 73 65 70 66 58 63 54 46 38 37 36 32 27 26 24 20 20 19 13 9 13
89 85 85 73 64 65 64 56 47 41 41 39 35 30 26 19 20 19 7 6 12 15
92 92 83 78 75 69 61 57 52 48 42 36 33 29 26 20 24 10 11 8 12 21
100 95 88 84 76 68 63 57 51 46 41 36 31 24 22 25 19 7 3 10 18 23
103 94 93 90 79 71 63 55 47 40 36 36 31 26 19 14 16 10 13 17 19 25
99 99 94 89 79 67 58 50 45 44 40 37 32 25 20 17 21 15 19 23 23 33
100 97 90 81 72 64 55 50 49 43 39 35 33 25 22 23 18 22 20 24 30 40
96 90 83 79 70 62 56 52 48 42 39 32 32 26 25 21 17 22 18 19 32 38
85 85 83 76 66 58 52 55 48 44 37 33 32 26 23 16 16 16 12 21 34 37
80 78 74 70 61 55 55 54 48 45 39 34 28 27 18 15 18 17 17 25 35 43
Wind_Direction_850mb
186 187 190 192 187 180 171 174 175 160 145 134 136 134 116 114 113 110 93 93 142 114
187 192 185 180 176 167 172 169 164 151 145 145 130 118 108 106 108 89 84 86 137 98
178 193 191 182 178 172 167 163 156 150 149 144 127 115 105 96 90 74 66 73 85 87
179 181 184 180 171 168 161 152 149 149 144 130 119 107 97 97 91 72 64 64 39 48
180 181 175 171 169 153 149 145 146 145 134 124 120 112 101 110 93 67 70 62 19 52
168 167 168 166 156 152 145 143 140 134 128 125 124 119 128 120 98 94 64 39 32 24
164 163 160 155 149 144 143 140 141 141 136 133 133 132 126 119 106 103 98 67 22 15
160 158 153 148 147 143 145 147 146 143 137 135 141 136 130 123 109 126 71 32 19 10
150 149 150 149 144 149 150 149 146 142 137 137 139 138 146 116 105 84 54 20 355 357
150 149 150 144 147 150 145 140 136 130 129 126 127 125 113 87 76 61 39 50 27 8
150 151 147 141 144 142 137 134 126 124 117 119 116 115 105 95 81 67 54 30 18 14
155 148 141 142 138 135 135 127 122 117 113 117 118 112 111 112 90 67 46 13 11 21
148 143 141 138 135 133 125 119 118 117 119 118 121 119 137 119 107 109 70 15 32 44
141 138 134 135 130 129 121 115 118 116 111 117 128 148 134 132 125 102 65 58 58 51